MIDAS 5 DEB, 19981

Orbit data source: Space-Track

MIDAS 5 DEB, 19981 is space debris in LEO originally from a launch on Mon, 09 Apr 1962 UTC launched from the Air Force Western Test Range (AFWTR). Debris objects in space refer to the collection of defunct objects orbiting the Earth. Examples of debris include non-operational satellites, rocket bodies, and fragments generated from explosions, collisions, or faulty payload assembly.

Loading next visibility...
Identifier
19981, 1962-010H
Orbit
LEO
Country
Flag of USUS
Related business
Manufacturer
MIT-LL
Mission
Spacecraft
Bus & Motor
WESTFORD DRAG, Unknown motor
Mass
~1 kg wet, ~1 kg dry
Launch date (UTC)
1962-04-09 (64 years ago)
Launch vehicle
Unknown
Launch site
Air Force Western Test Range (AFWTR)
Object type
Payload
Rocket body
Debris
Shape & HBR
Unknown
Radar Cross Section
Medium (>0.1 m² and <1 m²)

Expand to show TLE details & history
Last TLE update: 2 days ago

TLE from 2 days ago
0 MIDAS 5 DEB
1 19981U 62010H   26143.86540538  .00000006  00000-0  59580-3 0  9998
2 19981  86.6694 318.5071 0333022 321.7214  36.0472  9.42998196303226
Epoch: 2026-05-23T20:46Z
TLE epoch observation values (Epoch: 2026-05-23T20:46:11.024Z)
Latitude
-0.00003°
Longitude
125.4854°
Altitude
2,836.822 km
Speed
6.664 km/s
True Right ascension
21h 14m 01s
True Declination
0° 00' 00"
Sunlit
Object was in daylight at epoch
Visualization orbit readout
Latitude
Unknown
Longitude
Unknown
Altitude
Unknown
Speed
Unknown
Apparent Right ascension
Unknown
Apparent Declination
Unknown
Sunlit
N/A
Visualization observer readout
Local Sidereal Time
00:43:19
Azimuth
Unknown
Elevation
Unknown
Doppler factor
Unknown
Orbital elements
Apogee altitude
3,398.354 km
Perigee altitude
2,768.183 km
Semi-major axis
9,461.406 km
Eccentricity
0.0333
Inclination
86.6694°
RAAN
318.5071°
Arg. of periapsis
321.7214°
True anomaly
38.37028°
Mean anomaly
36.0472°
Eccentric anomaly
37.20084°
Mean motion
2.35836 °/min
Orbital period
152.65 mins
BSTAR
0.0005958
Loading maneuver chart data...
Computing Atmospheric mass density...
Loading historical data...
Loading historical data...
Loading historical data...
Loading historical data...
Loading historical data...
Loading historical data...
Loading historical data...

Documentation

Showing up to 5 results
|